Starlink 11469

operational
NORAD ID: 62227 Int'l Des: 2024-231 Owner: SPXS Country: US Constellation: starlink
LEOCIRCULAR

Über Starlink 11469

Beschreibung wird geladen...

Live-Position

3D-Globus wird geladen...

Nächste Überflüge

Höhenverlauf

Altitude vs Time

uPlot chart will show altitude changes over time

Zweizeiliger Elementsatz

1 62227U 24231K 25306.48809419 .00181616 00000-0 14685-2 0 9999
2 62227 53.1572 8.2785 0001629 51.6136 308.5028 15.69756641 53435
Epoch: 2. Nov. 2025 • Age: 27 hours

Aktueller Status

Höhe 368.6 km
Geschwindigkeit 7.69 km/s
Subsatellitenpunkt -32.51°S, 65.64°E
Startdatum 5. Dez. 2024
Alter 0.9 years
Typ internet

Technische Details

Klassifizierung Payload
Masse 960.00 kg
Trockenmasse 910.00 kg
Gesamtmasse 960.00 kg
Länge 0.30 m
Durchmesser 4.10 m
Spannweite 29.00 m
Form Box + pan
Hersteller SPXS
Bus-Typ Starlink V2MD
Phasenstatus In Orbit
Besitzer/Staat SPXS/US

Große Konstellationen

Loading constellations...